SL-16 DEB, 22816

Orbit data source: Space-Track

SL-16 DEB, 22816 is space debris in LEO originally from a launch on Fri, 25 Dec 1992 UTC launched from the Tyuratam Missile And Space Complex (TTMTR). Debris objects in space refer to the collection of defunct objects orbiting the Earth. Examples of debris include non-operational satellites, rocket bodies, and fragments generated from explosions, collisions, or faulty payload assembly.

Loading next visibility...
Identifier
22816, 1992-093JC
Orbit
LEO
Country
Flag of CISCIS
Related business
Manufacturer
Unknown
Mission
Spacecraft
Bus & Motor
Unknown
Mass
Unknown
Launch date (UTC)
1992-12-25 (33 years ago)
Launch vehicle
Unknown
Launch site
Tyuratam Missile And Space Complex (TTMTR)
Object type
Payload
Rocket body
Debris
Shape & HBR
Unknown shape, 0.1 m
Radar Cross Section
Small (<0.1 m²)

Expand to show TLE details & history
Last TLE update: 2 days ago

TLE from 2 days ago
0 SL-16 DEB
1 22816U 92093JC  25303.92416223  .00058536  00000-0  99341-2 0  9999
2 22816  71.4455 264.1987 0056120   4.9992 355.1709 14.67811165675863
Epoch: 2025-10-30T22:10Z
TLE epoch observation values (Epoch: 2025-10-30T22:10:47.616Z)
Latitude
-0.00004°
Longitude
-107.97569°
Altitude
631.146 km
Speed
7.564 km/s
True Right ascension
17h 36m 47s
True Declination
0° 00' 00"
Sunlit
Object was in daylight at epoch
Visualization orbit readout
Latitude
Unknown
Longitude
Unknown
Altitude
Unknown
Speed
Unknown
Apparent Right ascension
Unknown
Apparent Declination
Unknown
Sunlit
N/A
Visualization observer readout
Local Sidereal Time
13:59:00
Azimuth
Unknown
Elevation
Unknown
Doppler factor
Unknown
Orbital elements
Apogee altitude
705.424 km
Perigee altitude
626.362 km
Semi-major axis
7,044.03 km
Eccentricity
0.00561
Inclination
71.4455°
RAAN
264.1987°
Arg. of periapsis
4.9992°
True anomaly
355.11638°
Mean anomaly
355.1709°
Eccentric anomaly
355.14368°
Mean motion
3.67123 °/min
Orbital period
98.06 mins
BSTAR
0.0099341
Loading maneuver chart data...
Computing Atmospheric mass density...
Loading historical data...
Loading historical data...
Loading historical data...
Loading historical data...
Loading historical data...
Loading historical data...
Loading historical data...

Documentation

Showing up to 5 results
|